TimeEDT,TemperatureF,Dew PointF,Humidity,Sea Level PressureIn,VisibilityMPH,Wind Direction,Wind SpeedMPH,Gust SpeedMPH,PrecipitationIn,Events,Conditions,WindDirDegrees,DateUTC
12:56 AM,69.1,66.9,93,29.71,4.0,Calm,Calm,-,N/A,,Clear,0,2013-06-30 04:56:00
1:56 AM,68.0,66.9,96,29.72,3.0,Calm,Calm,-,N/A,,Clear,0,2013-06-30 05:56:00
2:30 AM,68.0,64.4,88,29.74,1.8,Calm,Calm,-,N/A,,Clear,0,2013-06-30 06:30:00
2:46 AM,66.2,66.2,100,29.74,2.5,Calm,Calm,-,N/A,,Clear,0,2013-06-30 06:46:00
2:56 AM,68.0,66.0,93,29.73,3.0,Calm,Calm,-,N/A,,Partly Cloudy,0,2013-06-30 06:56:00
3:56 AM,68.0,66.0,93,29.72,3.0,Calm,Calm,-,N/A,,Clear,0,2013-06-30 07:56:00
3:58 AM,68.0,66.2,94,29.74,2.5,Calm,Calm,-,N/A,,Partly Cloudy,0,2013-06-30 07:58:00
4:56 AM,66.9,66.0,97,29.74,0.5,SE,3.5,-,N/A,Fog,Fog,140,2013-06-30 08:56:00
5:37 AM,66.2,66.2,100,29.77,1.0,Calm,Calm,-,N/A,,Mist,0,2013-06-30 09:37:00
5:44 AM,66.2,64.4,94,29.77,1.5,Calm,Calm,-,N/A,,Mostly Cloudy,0,2013-06-30 09:44:00
5:56 AM,66.9,66.0,97,29.76,1.5,Calm,Calm,-,N/A,,Partly Cloudy,0,2013-06-30 09:56:00
6:26 AM,68.0,66.2,94,29.79,0.5,ENE,3.5,-,N/A,Fog,Fog,70,2013-06-30 10:26:00
6:46 AM,68.0,66.2,94,29.79,0.0,Calm,Calm,-,N/A,Fog,Fog,0,2013-06-30 10:46:00
6:56 AM,69.1,68.0,96,29.78,0.0,ESE,3.5,-,N/A,Fog,Fog,120,2013-06-30 10:56:00
7:56 AM,70.0,69.1,97,29.82,0.5,Calm,Calm,-,N/A,,Mist,0,2013-06-30 11:56:00
7:58 AM,69.8,68.0,94,29.83,1.2,Calm,Calm,-,N/A,,Mist,0,2013-06-30 11:58:00
8:56 AM,75.0,70.0,84,29.81,1.5,Calm,Calm,-,N/A,,Mostly Cloudy,0,2013-06-30 12:56:00
9:24 AM,75.2,69.8,83,29.83,3.0,East,5.8,-,N/A,,Mostly Cloudy,80,2013-06-30 13:24:00
9:56 AM,78.1,71.1,79,29.81,5.0,SE,3.5,-,N/A,,Mostly Cloudy,130,2013-06-30 13:56:00
10:56 AM,77.0,71.1,82,29.83,5.0,SE,6.9,-,N/A,,Overcast,140,2013-06-30 14:56:00
11:56 AM,81.0,73.0,77,29.82,5.0,SE,5.8,-,N/A,,Mostly Cloudy,140,2013-06-30 15:56:00
12:56 PM,81.0,72.0,74,29.82,10.0,SE,12.7,-,N/A,,Scattered Clouds,140,2013-06-30 16:56:00
1:56 PM,79.0,72.0,79,29.82,10.0,SSE,15.0,23.0,N/A,,Mostly Cloudy,150,2013-06-30 17:56:00
2:56 PM,77.0,72.0,84,29.83,7.0,SSE,10.4,-,N/A,,Overcast,160,2013-06-30 18:56:00
3:45 PM,75.2,71.6,89,29.84,7.0,SSE,12.7,18.4,N/A,,Overcast,160,2013-06-30 19:45:00
3:56 PM,75.9,71.1,85,29.83,6.0,South,9.2,17.3,N/A,,Overcast,170,2013-06-30 19:56:00
4:56 PM,73.9,71.1,91,29.85,5.0,South,6.9,-,N/A,,Overcast,170,2013-06-30 20:56:00
5:56 PM,73.9,71.1,91,29.85,6.0,Calm,Calm,-,N/A,,Overcast,0,2013-06-30 21:56:00
6:56 PM,75.0,70.0,84,29.86,8.0,SSE,5.8,-,N/A,,Overcast,150,2013-06-30 22:56:00
7:56 PM,73.9,70.0,87,29.88,7.0,SE,6.9,-,N/A,,Overcast,140,2013-06-30 23:56:00
8:56 PM,73.0,70.0,90,29.88,7.0,SE,8.1,-,N/A,,Overcast,140,2013-07-01 00:56:00
9:56 PM,73.0,69.1,87,29.90,10.0,SSE,8.1,-,N/A,,Overcast,160,2013-07-01 01:56:00
10:56 PM,72.0,70.0,93,29.91,8.0,SSE,6.9,-,N/A,,Overcast,160,2013-07-01 02:56:00
11:56 PM,72.0,70.0,93,29.91,7.0,South,5.8,-,N/A,,Overcast,170,2013-07-01 03:56:00